World > North America > United States > Illinois > Blairsville

Blairsville, IL Hourly Weather Conditions

Feedback E-mail the Weather

Quick WX

Blairsville, IL Weather Maps

°F °C°F °C
Blairsville Weather Map
UTC Time: 1/28/2023, 19:19
Your Time:

Blairsville, IL Regional Weather

Expires:202301282000;;396700
ASUS43 KLOT 281910
RWRIL 

ILLINOIS REGIONAL WEATHER ROUNDUP
NATIONAL WEATHER SERVICE CHICAGO/ROMEOVILLE IL
100 PM CST SAT JAN 28 2023

NOTE: "FAIR" INDICATES FEW OR NO CLOUDS BELOW 12,000 FEET WITH NO
SIGNIFICANT WEATHER AND/OR OBSTRUCTIONS TO VISIBILITY.

* THESE STATIONS ARE NOT UNDER NWS QUALITY CONTROL. THEY ALSO MAY NOT
  REPORT WEATHER SUCH AS PRECIPITATION OR FOG.


ILZ064>066-069>071-074>076-080>082-084>086-088>090-092>094-282000-
SOUTH-CENTRAL ILLINOIS
  
CITY           SKY/WX    TMP DP  RH WIND       PRES   REMARKS
CARBONDALE     LGT RAIN  47  39  74 S15G21    30.12F                  
CAIRO*         CLOUDY    53  36  52 SW10G17   30.15F                  
EFFINGHAM*     MOSUNNY   55  32  42 SE16G23   30.07F                  
MARION         CLOUDY    46  39  76 SW7       30.13F                  
MT. VERNON     CLOUDY    52  38  58 S20       30.09F                  
METROPOLIS*    CLOUDY    53  32  45 S13       30.16F                  
$$


SKY/WX - Weather  TMP - Temperature  DP - Dew Point  RH - Humidity
WIND - Wind Direction/Speed PRES - Barometric Pressure VSB - Visibility
WCI - Wind Chill Index E13G22 Wind - East Wind 13 mph/Gusts of 22 mph

Trending Headlines

Trending Entertainment Headlines

Blairsville Radar Loop

Use the map search tool if you want to place a location marker on the radar map...

Blairsville Quick Facts

National Two Day Weather Forecast


E-mail the Blairsville Weather Forecast

Voice your opinion or tell us about page issues...